Regional Weather Roundup
Issued by NWS

Home | Current Version | Previous Version | Text Only | Print | Product List | Glossary Off
Versions: 1 2 3 4 5 6 7 8 9 10 11 12 13 14 15 16 17 18 19 20 21 22 23 24 25 26 27 28 29 30 31 32 33 34 35 36 37 38 39 40 41 42 43 44 45 46 47 48 49 50

821
ASUS44 KMEG 232300
RWRTN
TENNESSEE HOURLY STATE WEATHER ROUNDUP
NATIONAL WEATHER SERVICE MEMPHIS TN
600 PM CDT THU MAR 23 2017

TNZ002-004-019-021-049-052-054-088>092-240000-
WEST TENNESSEE

CITY           SKY/WX    TMP DP  RH WIND       PRES   REMARKS
MEMPHIS INTL   SUNNY     78  52  40 S16       30.11F
NWS MEMPHIS      N/A     80 N/A N/A MISG        N/A
JACKSON        SUNNY     76  50  40 S10G16    30.14F
DYERSBURG      SUNNY     73  49  42 SE8       30.13F
PARIS          SUNNY     68  43  40 E5        30.16F
$$

TNZ008-025-027-028-033-062-065-066-240000-
NORTH MIDDLE TENNESSEE

CITY           SKY/WX    TMP DP  RH WIND       PRES   REMARKS
NASHVILLE      MOSUNNY   70  42  36 SE15G22   30.23S
CLARKSVILLE    SUNNY     61  44  53 E6        30.19F
SMYRNA         SUNNY     69  44  40 S10       30.24S
CROSSVILLE     CLOUDY    54  40  59 SE5       30.32R
$$

TNZ061-075-076-078-094-096-097-240000-
SOUTH MIDDLE TENNESSEE

CITY           SKY/WX    TMP DP  RH WIND       PRES   REMARKS
TULLAHOMA      SUNNY     66  39  37 SE7       30.27S
WINCHESTER     SUNNY     66  43  42 SE15      30.27S
MCMINNVILLE    PTSUNNY   64  43  45 VRB6      30.27S
COLUMBIA       SUNNY     72  46  40 S7        30.20S
SHELBYVILLE    SUNNY     70  46  43 S10       30.25F
$$

TNZ017-018-042-046-047-240000-
NORTHEAST TENNESSEE

CITY           SKY/WX    TMP DP  RH WIND       PRES   REMARKS
TRI CITIES     PTCLDY    63  32  31 SW5       30.32F
$$

TNZ012-013-036-069-073-074-240000-
CENTRAL EAST TENNESSEE

CITY           SKY/WX    TMP DP  RH WIND       PRES   REMARKS
KNOXVILLE      CLOUDY    65  39  38 SW9       30.29F
OAK RIDGE      CLOUDY    66  35  31 S5        30.31S
GATLINBURG     CLEAR     63  34  34 NE3       30.30F
$$

TNZ083-085-099-240000-
SOUTHEAST TENNESSEE

CITY           SKY/WX    TMP DP  RH WIND       PRES   REMARKS
CHATTANOOGA    CLOUDY    64  35  34 SE10G21   30.32R
$$

SKY/WX REPORTED AS FAIR MEANS FEW OR NO CLOUDS BELOW
12 THOUSAND FEET.





USA.gov is the U.S. government's official web portal to all federal, state and local government web resources and services.